FW7556 Weather Reports


time (UTC)temp
C
wind
direction
speed
KPH
gust
KPH
rain 1hr
cm
rain 24hr
cm
rain mn
cm
humidity
%
barometer
mb
20260509032326 12 111 0.0 1.6 0.00 0.03 0.03 64 1014.9
20260509031824 12 180 0.0 0.0 0.00 0.03 0.03 63 1015.2
20260509031321 12 180 0.0 1.6 0.00 0.03 0.03 64 1015.3
20260509030818 12 180 0.0 0.0 0.00 0.03 0.03 64 1015.1
20260509030316 12 180 0.0 0.0 0.00 0.03 0.03 64 1015.4
20260509025813 12 180 0.0 0.0 0.00 0.03 0.03 64 1015.1
20260509025308 12 180 0.0 0.0 0.00 0.03 0.03 64 1015.2
20260509024804 12 180 0.0 0.0 0.00 0.03 0.03 64 1015.3
20260509024300 12 180 0.0 0.0 0.00 0.03 0.03 63 1015.3
20260509023757 12 180 0.0 0.0 0.00 0.03 0.03 63 1015.6
20260509023255 12 173 0.0 1.6 0.00 0.03 0.03 63 1015.6
20260509022750 12 165 0.0 0.0 0.00 0.03 0.03 63 1015.5
20260509022248 11 172 0.0 0.0 0.00 0.03 0.03 62 1015.5
20260509021745 11 165 0.0 0.0 0.00 0.03 0.03 61 1015.6
20260509021242 11 165 0.0 0.0 0.00 0.03 0.03 61 1015.6
20260509020740 11 165 0.0 1.6 0.00 0.03 0.03 60 1015.8
20260509020237 11 180 0.0 0.0 0.00 0.03 0.03 59 1015.7
20260509015735 12 270 0.0 0.0 0.00 0.03 0.03 59 1015.7
20260509015233 12 270 0.0 0.0 0.00 0.03 0.03 59 1015.6
20260509014729 12 270 0.0 0.0 0.00 0.03 0.03 59 1015.5
20260509014226 12 270 0.0 0.0 0.00 0.03 0.03 58 1015.8
20260509013723 12 270 0.0 0.0 0.00 0.03 0.03 57 1015.5
20260509013213 12 270 0.0 0.0 0.00 0.03 0.03 56 1015.2
20260509012710 12 270 0.0 0.0 0.00 0.03 0.03 56 1015.5
20260509012206 12 270 0.0 0.0 0.00 0.03 0.03 56 1015.6
20260509011704 12 270 0.0 0.0 0.00 0.03 0.03 55 1015.4
20260509011202 12 270 0.0 0.0 0.00 0.03 0.03 54 1015.5
20260509010659 12 270 0.0 0.0 0.00 0.03 0.03 54 1015.3
20260509010155 13 270 0.0 0.0 0.00 0.03 0.03 53 1015.3
20260509005653 13 270 0.0 0.0 0.00 0.03 0.03 52 1015.2
20260509005150 13 270 0.0 0.0 0.00 0.03 0.03 52 1015.0
20260509004645 13 270 0.0 0.0 0.00 0.03 0.03 52 1015.4
20260509004142 13 270 0.0 0.0 0.00 0.03 0.03 51 1015.2
20260509003641 14 270 0.0 0.0 0.00 0.03 0.03 50 1015.2
20260509003137 14 270 0.0 0.0 0.00 0.03 0.03 49 1015.2
20260509002629 15 270 0.0 0.0 0.00 0.03 0.03 49 1014.9
20260509002126 15 270 0.0 0.0 0.00 0.03 0.03 48 1014.7
20260509001624 15 270 0.0 0.0 0.00 0.03 0.03 48 1014.9
20260509001119 15 270 0.0 0.0 0.00 0.03 0.03 47 1015.0
20260509000618 16 270 0.0 0.0 0.00 0.03 0.03 46 1014.8
20260509000114 16 270 0.0 0.0 0.00 0.03 0.03 46 1014.9
20260508235611 16 270 0.0 0.0 0.00 0.03 0.03 45 1014.8
20260508235108 16 180 0.0 0.0 0.00 0.03 0.03 44 1014.7
20260508234606 17 180 0.0 0.0 0.00 0.03 0.03 43 1015.0
20260508234102 17 180 0.0 0.0 0.00 0.03 0.03 42 1014.9
20260508233601 17 180 0.0 0.0 0.00 0.03 0.03 41 1015.1
20260508233058 17 173 4.8 4.8 0.00 0.03 0.03 41 1015.1
20260508232555 18 180 0.0 6.4 0.00 0.03 0.03 39 1015.0
20260508232052 18 203 0.0 4.8 0.00 0.03 0.03 38 1015.0
20260508231550 18 246 0.0 4.8 0.00 0.03 0.03 37 1015.2
20260508231047 18 180 1.6 9.7 0.00 0.03 0.03 37 1014.9
20260508230543 18 254 3.2 4.8 0.00 0.03 0.03 38 1014.9
20260508230040 18 251 0.0 3.2 0.00 0.03 0.03 38 1014.8
20260508225537 18 248 3.2 3.2 0.00 0.03 0.03 37 1014.8
20260508225033 19 248 3.2 8.0 0.00 0.03 0.03 35 1014.8
20260508224532 19 270 0.0 3.2 0.00 0.03 0.03 37 1015.0
20260508224029 19 203 0.0 6.4 0.00 0.03 0.03 37 1014.6
20260508223527 19 270 0.0 4.8 0.00 0.03 0.03 36 1014.8
20260508223024 19 248 3.2 8.0 0.00 0.03 0.03 37 1014.8
20260508222521 19 176 3.2 8.0 0.00 0.03 0.03 37 1014.6
20260508222017 19 263 0.0 4.8 0.00 0.03 0.03 37 1014.7
20260508221514 19 200 0.0 1.6 0.00 0.03 0.03 37 1014.6
20260508221010 19 201 4.8 4.8 0.00 0.03 0.03 37 1014.4
20260508220507 19 214 6.4 12.9 0.00 0.03 0.03 36 1014.3
20260508220003 19 229 3.2 6.4 0.00 0.03 0.03 37 1014.4
20260508215459 19 262 1.6 8.0 0.00 0.03 0.03 37 1014.7
20260508214956 19 349 0.0 3.2 0.00 0.03 0.03 37 1014.4
20260508214454 19 270 0.0 3.2 0.00 0.03 0.03 37 1014.6
20260508213950 19 270 1.6 4.8 0.00 0.03 0.03 36 1014.6
20260508213448 19 90 0.0 11.3 0.00 0.03 0.03 35 1014.5
20260508212942 19 233 3.2 6.4 0.00 0.03 0.03 36 1014.5
20260508212440 19 172 8.0 8.0 0.00 0.03 0.03 36 1014.4
20260508211936 19 206 3.2 8.0 0.00 0.03 0.03 37 1014.6
20260508211431 19 203 0.0 0.0 0.00 0.03 0.03 36 1014.4
20260508210929 20 270 0.0 4.8 0.00 0.03 0.03 36 1014.6
20260508210425 20 60 1.6 4.8 0.00 0.03 0.03 34 1014.8
20260508205921 20 234 0.0 4.8 0.00 0.03 0.03 36 1014.6
20260508205419 20 191 0.0 3.2 0.00 0.03 0.03 35 1014.8
20260508204915 20 270 0.0 9.7 0.00 0.03 0.03 35 1015.0
20260508204412 20 172 0.0 1.6 0.00 0.03 0.03 34 1014.9
20260508203908 20 126 1.6 4.8 0.00 0.03 0.03 35 1015.4
20260508203405 20 146 4.8 8.0 0.00 0.03 0.03 35 1015.4
20260508202900 20 109 0.0 3.2 0.00 0.03 0.03 35 1015.2
20260508202357 20 127 3.2 9.7 0.00 0.03 0.03 33 1015.4
20260508201855 20 279 0.0 3.2 0.00 0.03 0.03 36 1015.3
20260508201351 20 206 0.0 3.2 0.00 0.03 0.03 36 1015.4
20260508200848 20 264 3.2 11.3 0.00 0.03 0.03 34 1015.4
20260508200345 20 270 3.2 8.0 0.00 0.03 0.03 35 1015.4
20260508195840 20 212 0.0 9.7 0.00 0.03 0.03 33 1015.3
20260508195337 20 163 3.2 8.0 0.00 0.03 0.03 36 1015.3
20260508194833 20 194 1.6 4.8 0.00 0.03 0.03 35 1015.4
20260508194331 20 270 0.0 8.0 0.00 0.03 0.03 34 1015.7
20260508193827 20 83 1.6 6.4 0.00 0.03 0.03 33 1015.5
20260508193324 20 194 3.2 6.4 0.00 0.03 0.03 34 1015.6
20260508192820 20 45 0.0 4.8 0.00 0.03 0.03 35 1016.1
20260508192318 20 120 0.0 4.8 0.00 0.03 0.03 35 1015.9
20260508191815 21 180 3.2 9.7 0.00 0.03 0.03 35 1015.9
20260508191312 20 172 3.2 4.8 0.00 0.03 0.03 36 1015.8
20260508190809 20 270 0.0 3.2 0.00 0.03 0.03 36 1015.8
20260508190305 20 198 0.0 3.2 0.00 0.03 0.03 34 1016.2
20260508185802 20 195 9.7 9.7 0.00 0.03 0.03 37 1016.2
20260508185259 20 194 4.8 12.9 0.00 0.03 0.03 36 1016.2
20260508184756 20 229 0.0 4.8 0.00 0.03 0.03 36 1016.2
20260508184253 20 209 3.2 4.8 0.00 0.03 0.03 39 1016.3
20260508183750 20 198 0.0 9.7 0.00 0.03 0.03 39 1016.3
20260508183246 20 30 3.2 3.2 0.00 0.03 0.03 39 1016.3
20260508182743 20 26 3.2 3.2 0.00 0.03 0.03 38 1016.2
20260508182239 20 243 4.8 8.0 0.00 0.03 0.03 41 1016.5
20260508181735 20 276 0.0 3.2 0.00 0.03 0.03 38 1016.6
20260508181232 20 132 0.0 3.2 0.00 0.03 0.03 43 1016.7
20260508180729 20 243 4.8 4.8 0.00 0.03 0.03 43 1016.7
20260508180226 20 237 3.2 11.3 0.00 0.03 0.03 46 1016.7
20260508175722 20 206 3.2 4.8 0.00 0.03 0.03 47 1016.7
20260508175219 20 66 1.6 4.8 0.00 0.03 0.03 45 1016.7
20260508174717 20 270 0.0 4.8 0.00 0.03 0.03 46 1016.9
20260508174214 20 276 0.0 4.8 0.00 0.03 0.03 46 1017.0
20260508173710 20 195 0.0 4.8 0.00 0.03 0.03 48 1017.0
20260508173206 20 237 3.2 4.8 0.00 0.03 0.03 47 1017.1
20260508172704 19 270 1.6 8.0 0.00 0.03 0.03 49 1017.2
20260508172200 19 30 3.2 4.8 0.00 0.03 0.03 49 1017.0
20260508171657 19 66 1.6 6.4 0.00 0.03 0.03 48 1017.1
20260508171153 19 261 0.0 6.4 0.00 0.03 0.03 50 1017.0
20260508170650 19 205 4.8 8.0 0.00 0.03 0.03 47 1017.2
20260508170148 19 170 6.4 11.3 0.00 0.03 0.03 52 1017.3
20260508165645 19 215 0.0 6.4 0.00 0.03 0.03 56 1017.4
20260508165142 18 185 0.0 9.7 0.00 0.03 0.03 55 1017.3
20260508164638 18 214 4.8 4.8 0.00 0.03 0.03 59 1017.7
20260508164135 18 325 0.0 3.2 0.00 0.03 0.03 58 1017.7
20260508163633 18 261 0.0 3.2 0.00 0.03 0.03 59 1017.8
20260508163130 18 307 3.2 4.8 0.00 0.03 0.03 58 1018.0
20260508162626 19 209 4.8 6.4 0.00 0.03 0.03 61 1018.1
20260508162123 19 241 0.0 4.8 0.00 0.03 0.03 68 1018.2
20260508161620 18 0 1.6 3.2 0.00 0.03 0.03 67 1018.0
20260508161118 18 270 0.0 4.8 0.00 0.03 0.03 68 1018.2
20260508160616 18 297 0.0 3.2 0.00 0.03 0.03 66 1018.2
20260508160113 18 270 1.6 8.0 0.00 0.03 0.03 67 1018.3
20260508155610 17 23 0.0 0.0 0.00 0.03 0.03 72 1018.2
20260508155106 17 15 0.0 4.8 0.00 0.03 0.03 71 1018.3
20260508154603 17 8 0.0 3.2 0.00 0.03 0.03 74 1018.5
20260508154100 17 81 0.0 3.2 0.00 0.03 0.03 76 1018.6
20260508153557 17 74 0.0 4.8 0.00 0.03 0.03 76 1018.7
20260508153054 17 249 0.0 3.2 0.00 0.03 0.03 76 1018.6
20260508152551 17 323 4.8 4.8 0.00 0.03 0.03 76 1018.6
20260508152046 17 184 0.0 6.4 0.00 0.03 0.03 78 1018.8
20260508151543 16 206 1.6 3.2 0.00 0.03 0.03 79 1018.8
20260508151040 16 75 0.0 1.6 0.00 0.03 0.03 80 1018.7
20260508150537 16 24 3.2 4.8 0.00 0.03 0.03 80 1018.8
20260508150032 16 291 0.0 4.8 0.00 0.03 0.03 76 1018.9
20260508145524 16 0 3.2 4.8 0.00 0.03 0.03 81 1018.9
20260508145020 15 32 3.2 3.2 0.00 0.03 0.03 84 1019.0
20260508144518 15 81 0.0 3.2 0.00 0.03 0.03 84 1018.9
20260508144015 15 72 0.0 4.8 0.00 0.03 0.03 84 1018.8
20260508143513 14 66 0.0 6.4 0.00 0.03 0.03 84 1018.8
20260508143009 14 0 0.0 4.8 0.00 0.03 0.03 86 1018.8
20260508142506 13 307 3.2 3.2 0.00 0.03 0.03 87 1018.5
20260508142003 13 90 0.0 6.4 0.00 0.03 0.03 88 1018.8
20260508141459 13 340 0.0 1.6 0.00 0.03 0.03 89 1018.7
20260508140957 12 73 0.0 3.2 0.00 0.03 0.03 89 1018.7
20260508140454 12 90 0.0 3.2 0.13 0.03 0.03 89 1018.6
20260508135949 12 84 3.2 3.2 0.13 0.03 0.03 90 1018.5
20260508135446 12 14 0.0 3.2 0.00 0.00 0.00 90 1018.6
20260508134942 11 270 0.0 3.2 0.00 0.00 0.00 91 1018.6
20260508134439 11 334 4.8 8.0 0.00 0.00 0.00 91 1018.7
20260508133935 11 180 0.0 3.2 0.00 0.00 0.00 91 1018.6
20260508133433 10 84 0.0 3.2 0.00 0.00 0.00 91 1018.5
20260508132930 10 90 0.0 3.2 0.00 0.00 0.00 91 1018.3
20260508132428 10 286 1.6 3.2 0.00 0.00 0.00 91 1018.1
20260508131925 9 40 3.2 3.2 0.00 0.00 0.00 91 1018.5
20260508131420 9 337 0.0 1.6 0.00 0.00 0.00 91 1018.3
20260508130917 9 294 0.0 4.8 0.00 0.00 0.00 91 1018.0
20260508130414 9 307 3.2 3.2 0.00 0.00 0.00 91 1018.3
20260508125910 9 0 1.6 1.6 0.00 0.00 0.00 91 1018.2
20260508125406 9 356 0.0 3.2 0.00 0.00 0.00 91 1018.3
20260508124904 9 353 0.0 3.2 0.00 0.00 0.00 91 1018.3
20260508124401 9 83 0.0 1.6 0.00 0.00 0.00 91 1018.0
20260508123859 8 8 0.0 3.2 0.00 0.00 0.00 91 1018.2
20260508123357 8 60 0.0 0.0 0.00 0.00 0.00 91 1018.3
20260508122853 8 8 0.0 0.0 0.00 0.00 0.00 91 1018.2
20260508122350 8 73 0.0 3.2 0.00 0.00 0.00 91 1018.3
20260508121847 8 81 0.0 0.0 0.00 0.00 0.00 91 1018.0
20260508121346 7 66 0.0 1.6 0.00 0.00 0.00 92 1018.0
20260508120843 7 35 0.0 1.6 0.00 0.00 0.00 91 1018.0
20260508120341 7 0 0.0 0.0 0.00 0.00 0.00 91 1017.7
20260508115838 7 0 0.0 0.0 0.00 0.00 0.00 91 1017.8
20260508115335 6 0 0.0 1.6 0.00 0.00 0.00 91 1017.5
20260508114832 6 15 0.0 0.0 0.00 0.00 0.00 91 1017.6
20260508114329 6 15 0.0 0.0 0.00 0.00 0.00 91 1017.5
20260508113826 6 15 0.0 0.0 0.00 0.00 0.00 91 1017.4
20260508113324 6 15 0.0 0.0 0.00 0.00 0.00 91 1017.4
20260508112820 5 15 0.0 0.0 0.00 0.00 0.00 91 1017.5
20260508112317 5 15 0.0 0.0 0.00 0.00 0.00 91 1017.2
20260508111813 5 15 0.0 0.0 0.00 0.00 0.00 91 1017.4
20260508111311 5 23 0.0 0.0 0.00 0.00 0.00 91 1017.3
20260508110808 5 15 0.0 1.6 0.00 0.00 0.00 91 1017.1
20260508110306 5 195 0.0 0.0 0.00 0.00 0.00 91 1017.2
20260508105805 5 195 0.0 0.0 0.00 0.00 0.00 91 1017.0
20260508105305 5 195 0.0 0.0 0.00 0.00 0.00 91 1017.2
20260508104759 5 195 0.0 0.0 0.00 0.00 0.00 91 1016.8
20260508104256 5 195 0.0 0.0 0.00 0.00 0.00 91 1016.8
20260508103753 5 195 0.0 0.0 0.00 0.00 0.00 91 1017.0
20260508103250 5 195 0.0 0.0 0.00 0.00 0.00 91 1016.6
20260508102747 5 195 0.0 0.0 0.00 0.00 0.00 91 1016.6
20260508102246 5 195 0.0 0.0 0.00 0.00 0.00 91 1016.6
20260508101743 5 195 0.0 0.0 0.00 0.00 0.00 91 1016.4
20260508101240 6 195 0.0 0.0 0.00 0.00 0.00 91 1016.5
20260508100738 6 195 0.0 0.0 0.00 0.00 0.00 91 1016.4
20260508100235 6 195 0.0 0.0 0.00 0.00 0.00 91 1016.1
20260508095731 6 195 0.0 0.0 0.00 0.00 0.00 91 1016.2
20260508095229 6 195 0.0 0.0 0.00 0.00 0.00 91 1016.1
20260508094725 6 195 0.0 0.0 0.00 0.00 0.00 91 1016.0
20260508094222 6 195 0.0 0.0 0.00 0.00 0.00 91 1016.0
20260508093720 6 195 0.0 0.0 0.00 0.00 0.00 91 1016.2
20260508093217 6 195 0.0 0.0 0.00 0.00 0.00 91 1016.1
20260508092714 6 195 0.0 0.0 0.00 0.00 0.00 91 1016.0
20260508092212 6 195 0.0 0.0 0.00 0.00 0.00 91 1015.9
20260508091710 6 195 0.0 0.0 0.00 0.00 0.00 91 1015.7
20260508091207 6 195 0.0 0.0 0.00 0.00 0.00 91 1015.8
20260508090704 6 195 0.0 0.0 0.00 0.00 0.00 91 1015.8
20260508090202 6 195 0.0 0.0 0.00 0.00 0.00 91 1015.7
20260508085657 6 195 0.0 0.0 0.00 0.00 0.00 91 1015.9
20260508085155 6 195 0.0 0.0 0.00 0.00 0.00 91 1015.9
20260508084651 6 195 0.0 0.0 0.00 0.00 0.00 91 1015.6
20260508084148 6 195 0.0 0.0 0.00 0.00 0.00 91 1015.6
20260508083646 6 195 0.0 0.0 0.00 0.00 0.00 91 1015.6
20260508083144 6 195 0.0 0.0 0.00 0.00 0.00 91 1015.4
20260508082638 6 195 0.0 0.0 0.00 0.00 0.00 91 1015.4
20260508082136 7 195 0.0 0.0 0.00 0.00 0.00 91 1015.4
20260508081633 7 195 0.0 0.0 0.00 0.00 0.00 91 1015.3
20260508081129 7 195 0.0 0.0 0.00 0.00 0.00 91 1015.3
20260508080627 7 195 0.0 0.0 0.00 0.00 0.00 91 1015.4
20260508080125 7 195 0.0 0.0 0.00 0.00 0.00 91 1015.3
20260508075621 7 195 0.0 0.0 0.00 0.00 0.00 90 1015.3
20260508075118 7 195 0.0 0.0 0.00 0.00 0.00 90 1015.3
20260508074616 7 195 0.0 0.0 0.00 0.00 0.00 90 1015.3
20260508074113 7 195 0.0 0.0 0.00 0.00 0.00 91 1015.3
20260508073610 7 195 0.0 0.0 0.00 0.00 0.00 91 1015.1
20260508073108 7 195 0.0 0.0 0.00 0.00 0.00 90 1015.3
20260508072603 7 8 0.0 0.0 0.00 0.00 0.00 90 1015.1
20260508072100 7 8 0.0 0.0 0.00 0.00 0.00 91 1014.9
20260508071558 7 8 0.0 0.0 0.00 0.00 0.00 91 1015.1
20260508071056 7 8 0.0 0.0 0.00 0.00 0.00 91 1014.9
20260508070553 7 8 0.0 0.0 0.00 0.00 0.00 90 1014.8
20260508070052 7 8 0.0 0.0 0.00 0.00 0.00 90 1014.9
20260508065549 7 8 0.0 0.0 0.00 0.00 0.00 90 1014.9
20260508065047 7 6 0.0 0.0 0.00 0.00 0.00 90 1014.9
20260508064544 7 352 0.0 0.0 0.00 0.00 0.00 90 1014.8
20260508064042 7 352 0.0 0.0 0.00 0.00 0.00 90 1014.8
20260508063539 7 352 0.0 0.0 0.00 0.00 0.00 90 1014.9
20260508063037 7 352 0.0 0.0 0.00 0.00 0.00 90 1014.8
20260508062534 7 352 0.0 0.0 0.00 0.00 0.00 90 1015.0
20260508062031 8 352 0.0 0.0 0.00 0.00 0.00 90 1014.8
20260508061529 8 8 0.0 0.0 0.00 0.00 0.00 90 1015.0
20260508061025 8 8 0.0 0.0 0.00 0.00 0.00 90 1014.7
20260508060522 8 0 0.0 1.6 0.00 0.00 0.00 90 1014.6
20260508060020 8 8 0.0 0.0 0.00 0.00 0.00 90 1014.8
20260508055515 8 90 0.0 0.0 0.00 0.00 0.00 90 1015.0
20260508055012 8 90 0.0 1.6 0.00 0.00 0.00 90 1014.8
20260508054509 8 15 0.0 0.0 0.00 0.00 0.00 90 1014.8
20260508054006 8 15 0.0 0.0 0.00 0.00 0.00 90 1014.8
20260508053502 8 15 0.0 0.0 0.00 0.00 0.00 90 1014.7
20260508053001 8 15 0.0 0.0 0.00 0.00 0.00 90 1014.6
20260508052458 8 15 0.0 0.0 0.00 0.00 0.00 90 1014.5
20260508051954 8 15 0.0 0.0 0.00 0.00 0.00 90 1014.5
20260508051449 8 15 0.0 0.0 0.00 0.00 0.00 90 1014.4
20260508050946 8 15 0.0 0.0 0.00 0.00 0.00 90 1014.6
20260508050442 8 15 0.0 0.0 0.00 0.00 0.00 90 1014.5
20260508045939 8 15 0.0 0.0 0.00 0.00 0.00 90 1014.6
20260508045437 8 15 0.0 0.0 0.00 0.00 0.00 90 1014.6
20260508044934 8 15 0.0 0.0 0.00 0.00 0.00 90 1014.4
20260508044431 8 15 0.0 0.0 0.00 0.00 0.00 90 1014.4
20260508043926 9 15 0.0 0.0 0.00 0.00 0.00 90 1014.5
20260508043424 9 15 0.0 0.0 0.00 0.00 0.00 90 1013.9
20260508042919 9 15 0.0 0.0 0.00 0.00 0.00 90 1014.0
20260508042418 9 15 0.0 0.0 0.00 0.00 0.00 90 1013.9
20260508041914 9 15 0.0 0.0 0.00 0.00 0.00 90 1013.8
20260508041411 9 15 0.0 0.0 0.00 0.00 0.00 90 1014.0
20260508040907 9 15 0.0 0.0 0.00 0.00 0.00 90 1014.0
20260508040405 9 15 0.0 0.0 0.00 0.00 0.00 90 1014.3
20260508035903 9 15 0.0 0.0 0.00 0.97 0.97 90 1014.0
20260508035359 10 15 0.0 0.0 0.00 0.97 0.97 90 1013.9
20260508034856 10 15 0.0 0.0 0.00 0.97 0.97 90 1013.9
20260508034354 10 15 0.0 0.0 0.00 0.97 0.97 90 1014.0
20260508033850 10 15 0.0 0.0 0.00 0.97 0.97 90 1013.8
20260508033348 10 15 0.0 1.6 0.00 0.97 0.97 90 1013.9
20260508032846 10 0 0.0 0.0 0.00 0.97 0.97 90 1013.9